SCP
0 0 0 0 0 0 0 0 0 0 0 0 0 0 0 0 0 0 0 0 0 0 0 0 0 0 0 0 0 0 0 0 0 0 0 0 0 0 0 0 0 0 0 0
0 0 0 0 0 0 0 0 0 0 0 0 0 0 0 0 0 0 0 0 0 0 0 0 0 0 0 0 0 0 0 0 0 0 0 0 0 0 0 0 0 0 0 0
0 0 0 0 0 0 0 0 0 0 0 0 0 0 0 0 0 0 0 0 0 0 0 0 0 0 0 0 0 0 0 0 0 0 0 0 0 0 0 0 0 0 0 0
0 0 0 0 0 0 0 0 0 0 0 0 0 0 0 0 0 0 0 0 0 0 0 0 0 0 0 0 0 0 0 0 0 0 0 0 0 0 0 0 0 0 0 0
0 0 0 0 0 0 0 0 0 0 0 0 0 0 0 0 0 0 0 0 0 0 0 0 0 0 0 0 0 0 0 0 0 0 0 0 0 0 0 0 0 0 0 0
0 0 0 0 0 0 0 0 0 0 0 0 0 0 0 0 0 0 0 0 0 0 0 0 0 0 0 0 0 0 0 0 0 0 0 0 0 0 0 0 0 0 0 0
0 0 0 0 0 0 0 0 0 0 0 0 0 0 0 0 0 0 0 0 0 0 0 0 0 0 0 0 0 0 0 0 0 0 0 0 0 0 0 0 0 0 0 0
0 0 0 0 0 0 0 0 0 0 0 0 0 0 0 0 0 0 0 0 0 0 0 0 0 0 0 0 0 0 0 0 0 0 0 0 0 0 0 0 0 0 0 0
0 0 0 0 0 0 0 0 0 0 0 0 0 0 0 0 0 0 0 0 0 0 0 0 0 0 0 0 0 0 0 0 0 0 0 0 0 0 0 0 0 0 0 0
0 0 0 0 0 0 0 0 0 0 0 0 0 0 0 0 0 0 0 0 0 0 0 0 0 0 0 0 0 0 0 0 0 0 0 0 0 0 0 0 0 0 0 0
0 0 0 0 0 0 0 0 0 0 0 0 0 0 0 0 0 0 0 0 0 0 0 0 0 0 0 0 0 0 0 0 0 0 0 0 0 0 0 0 0 0 0 0
0 0 0 0 0 0 0 0 0 0 0 0 0 0 0 0 0 0 0 0 0 0 0 0 0 0 0 0 0 0 0 0 0 0 0 0 0 0 0 0 0 0 0 0
0 0 0 0 0 0 0 0 0 0 0 0 0 0 0 0 0 0 0 0 0 0 0 0 0 0 0 0 0 0 0 0 0 0 0 0 0 0 0 0 0 0 0 0
0 0 0 0 0 0 0 0 0 0 0 0 0 0 0 0 0 0 0 0 0 0 0 0 0 0 0 0 0 0 0 0 0 0 0 0 0 0 0 0 0 0 0 0
0 0 0 0 0 0 0 0 0 0 0 0 0 0 0 0 0 0 0 0 0 0 0 0 0 0 0 0 0 0 0 0 0 0 0 0 0 0 0 0 0 0 0 0
0 0 0 0 0 0 0 0 0 0 0 0 0 0 0 0 0 0 0 0 0 0 0 0 0 0 0 0 0 0 0 0 0 0 0 0 0 0 0 0 0 0 0 0
0 0 0 0 0 0 0 0 0 0 0 0 0 0 0 0 0 0 0 0 0 0 0 0 0 0 0 0 0 0 0 0 0 0 0 0 0 0 0 0 0 0 0 0
0 0 0 0 0 0 0 0 0 0 0 0 0 0 0 0 0 0 0 0 0 0 0 0 0 0 0 0 0 0 0 0 0 0 0 0 0 0 0 0 0 0 0 0
0 0 0 0 0 0 0 0 0 0 0 0 0 0 0 0 0 0 0 0 0 0 0 0 0 0 0 0 0 0 0 0 0 0 0 0 0 0 0 0 0 0 0 0
0 0 0 0 0 0 0 0 0 0 0 0 0 0 0 0 0 0 0 0 0 0 0 0 0 0 0 0 0 0 0 0 0 0 0 0 0 0 0 0 0 0 0 0
0 0 0 0 0 0 0 0 0 0 0 0 0 0 0 0 0 0 0 0 0 0 0 0 0 0 0 0 0 0 0 0 0 0 0 0 0 0 0 0 0 0 0 0
0 0 0 0 0 0 0 0 0 0 0 0 0 0 0 0 0 0 0 0 0 0 0 0 0 0 0 0 0 0 0 0 0 0 0 0 0 0 0 0 0 0 0 0
0 0 0 0 0 0 0 0 0 0 0 0 0 0 0 0 0 0 0 0 0 0 0 0 0 0 0 0 0 0 0 0 0 0 0 0 0 0 0 0 0 0 0 0
0 0 0 0 0 0 0 0 0 0 0 0 0 0 0 0 0 0 0 0 0 0 0 0 0 0 0 0 0 0 0 0 0 0 0 0 0 0 0 0 0 0 0 0
0 0 0 0 0 0 0 0 0 0 0 0 0 0 0 0 0 0 0 0 0 0 0 0 0 0 0 0 0 0 0 0 0 0 0 0 0 0 0 0 0 0 0 0
0 0 0 0 0 0 0 0 0 0 0 0 0 0 0 0 0 0 0 0 0 0 0 0 0 0 0 0 0 0 0 0 0 0 0 0 0 0 0 0 0 0 0 0
0 0 0 0 0 0 0 0 0 0 0 0 0 0 0 0 0 0 0 0 0 0 0 0 0 0 0 0 0 0 0 0 0 0 0 0 0 0 0 0 0 0 0 0
Wind_Speed
1 2 4 5 9 12 11 8 7 5 6 7 6 7 7 5 3 2 2 2 4 4 5 6 6 7 7 7 8 8 8 9 9 9 10 10 11 11 11 11 11 11 11 11
1 2 4 6 10 13 13 13 13 11 11 9 7 5 5 5 3 2 1 1 2 3 4 5 6 6 6 7 7 8 9 9 9 9 10 10 11 11 12 12 11 12 11 11
2 1 3 9 11 15 11 11 11 13 10 7 7 8 7 4 3 2 1 1 1 2 3 4 5 5 6 6 7 8 8 8 8 9 10 10 10 11 11 11 11 11 11 12
1 2 7 0 2 7 12 12 13 11 10 9 8 7 5 2 2 2 2 2 2 2 3 3 4 5 5 6 7 7 8 8 8 8 9 9 10 10 10 9 9 9 10 10
3 4 7 4 4 6 7 7 10 14 13 10 5 4 3 3 3 3 3 3 3 2 3 3 4 5 5 6 7 7 7 7 7 7 8 9 9 9 8 8 9 8 8 9
3 4 5 1 3 4 4 3 3 7 7 5 3 4 1 6 5 4 4 4 3 3 4 4 4 4 6 6 7 7 7 7 7 7 8 8 8 8 7 7 8 8 8 8
6 5 6 2 3 5 4 2 2 2 3 3 4 3 4 7 5 5 5 5 4 4 4 4 4 5 6 6 6 6 6 7 7 7 7 7 7 7 7 7 7 7 7 6
6 7 6 3 6 5 1 1 1 2 3 3 3 2 5 6 6 6 6 6 5 5 4 3 4 5 6 6 5 5 6 7 7 7 6 6 7 6 6 6 6 6 5 5
6 5 1 3 4 2 2 3 3 3 3 3 3 5 6 7 7 7 7 7 6 6 5 4 4 5 6 5 5 6 7 7 6 6 6 5 6 6 5 4 4 3 3 3
6 7 6 6 5 4 3 4 4 3 3 4 5 6 7 7 8 8 8 7 7 7 7 5 5 5 6 6 6 6 7 6 5 6 6 5 4 4 3 3 3 2 2 2
7 6 5 3 2 2 2 2 1 1 3 4 5 6 8 8 9 8 8 8 7 7 7 7 6 6 6 6 6 7 6 6 5 5 5 5 4 4 3 3 3 2 2 1
6 4 3 1 1 1 1 2 2 2 3 3 5 6 8 8 8 9 9 9 8 8 8 7 7 7 6 6 6 7 6 5 4 3 3 3 4 4 5 4 4 4 2 2
2 1 2 2 0 1 2 2 2 3 4 4 4 6 7 7 8 9 9 10 10 9 8 8 8 7 6 6 6 6 6 5 4 3 3 3 2 2 2 3 3 3 3 3
1 1 3 2 1 2 3 2 2 3 3 4 4 5 7 7 8 10 10 10 9 9 8 8 8 7 7 6 6 6 6 5 4 3 3 3 2 1 1 0 1 0 1 3
2 1 2 2 2 2 2 2 2 3 3 3 4 6 7 8 9 9 9 9 9 9 9 9 8 8 7 7 7 7 5 4 4 3 3 2 2 2 1 1 1 2 2 2
1 1 2 2 3 3 3 3 4 5 4 5 5 6 7 7 7 7 8 10 10 11 10 9 9 8 8 8 7 6 5 6 5 4 3 3 2 2 2 2 2 2 3 3
2 2 2 3 4 4 5 5 5 5 5 6 6 6 6 7 7 8 9 9 8 8 9 9 9 8 8 8 7 5 5 6 7 4 3 3 3 3 2 2 3 3 3 3
2 2 4 5 6 6 6 6 6 6 5 5 5 6 8 9 9 9 8 8 7 7 7 8 8 8 8 8 7 5 5 5 5 4 4 3 3 3 3 3 3 4 3 4
1 2 3 4 5 6 6 6 5 5 4 4 6 7 8 7 7 7 8 9 10 9 9 8 12 10 9 9 8 6 6 6 5 4 4 4 4 3 3 3 3 4 4 4
1 2 3 4 4 4 4 4 4 3 2 4 5 5 6 6 6 7 9 9 8 6 7 10 11 9 9 9 10 6 6 6 6 5 4 4 4 4 3 4 4 4 4 4
2 3 4 4 4 4 3 3 2 1 2 3 4 5 5 5 6 7 8 7 6 6 8 12 9 8 8 9 11 6 6 6 6 5 5 4 4 4 4 4 4 4 4 4
2 2 3 4 4 4 4 3 2 1 1 2 2 3 4 5 6 6 7 5 5 9 8 7 7 10 11 12 7 7 7 7 6 5 5 5 4 4 4 4 4 4 4 5
1 2 3 3 4 3 3 3 3 2 1 1 2 3 4 4 4 5 5 4 5 10 8 7 10 14 16 10 7 7 7 7 6 6 5 5 4 4 4 5 4 4 5 5
1 2 3 3 3 2 3 4 4 2 2 2 2 2 3 3 3 4 3 5 9 11 7 9 15 17 16 8 7 7 7 7 6 6 5 4 4 4 4 4 4 4 5 6
1 1 2 2 2 2 3 3 3 3 2 2 2 2 2 2 3 3 3 5 8 10 6 10 15 17 11 7 8 7 7 7 6 6 5 5 5 4 4 4 5 5 5 5
1 1 1 2 2 2 2 2 2 2 3 3 2 2 2 2 2 3 3 5 7 9 6 6 8 12 8 8 8 8 7 6 7 6 6 5 5 5 5 5 6 5 5 6
1 1 1 1 1 2 2 2 3 3 3 3 4 3 3 2 2 3 3 4 4 5 5 5 6 7 7 7 7 7 6 6 6 5 5 5 5 5 5 6 5 5 5 5
Wind_Direction
98 124 171 203 200 197 208 216 225 239 249 259 273 290 300 304 310 321 0 20 23 19 18 17 18 21 23 25 27 33 43 45 45 46 51 54 57 59 61 63 67 72 76 78
189 196 226 241 226 215 221 229 239 258 272 272 282 275 281 290 296 296 336 32 34 27 25 24 25 27 31 34 37 44 52 52 52 55 58 59 61 64 66 66 69 72 73 75
207 190 254 251 228 212 210 214 221 235 245 267 278 285 296 295 273 250 176 95 56 40 38 35 35 36 42 44 49 56 59 58 58 62 64 65 66 68 69 69 72 75 76 78
219 218 241 217 112 206 217 228 225 240 255 268 284 302 304 275 209 169 155 142 115 84 71 60 58 58 60 61 63 66 66 65 65 68 69 69 70 70 71 72 72 73 75 80
213 252 272 269 199 185 198 237 225 233 252 267 288 279 214 152 148 142 142 131 117 105 94 83 74 73 76 73 71 71 67 65 68 74 77 75 74 73 73 76 74 72 73 75
208 249 254 84 119 172 196 223 177 209 241 259 237 265 136 144 148 142 137 133 128 121 108 96 88 91 89 80 75 71 69 70 74 77 81 81 78 77 76 78 79 79 74 72
224 248 269 256 156 165 215 137 130 215 253 243 236 294 106 143 148 146 142 138 134 126 113 103 105 104 93 84 77 78 82 82 80 79 82 84 83 81 84 86 86 84 82 75
207 226 245 141 163 202 308 55 241 260 260 246 227 145 150 160 158 157 154 148 143 133 120 111 113 114 105 94 95 95 90 84 81 81 84 88 90 87 88 93 93 91 88 81
216 233 22 170 210 259 295 264 265 258 250 220 201 191 177 174 169 168 164 156 150 143 133 123 121 124 119 117 118 110 100 93 90 88 85 89 94 96 94 89 89 89 86 81
245 253 252 249 252 257 255 264 273 263 240 213 211 193 183 177 174 172 168 162 158 157 151 140 132 126 125 131 130 122 114 108 105 100 95 90 87 85 87 87 90 90 82 75
241 256 265 246 221 244 273 274 270 253 228 221 203 193 186 182 179 175 169 166 167 167 158 149 144 139 140 144 143 133 125 119 113 105 104 97 87 76 76 72 49 54 59 35
226 214 221 192 106 341 281 266 262 248 233 214 203 196 187 185 179 174 172 170 171 170 164 157 156 152 153 157 156 146 137 134 127 123 119 116 115 105 72 67 76 65 41 350
243 168 246 278 234 30 301 286 268 245 234 223 207 194 188 183 177 175 175 176 179 175 170 165 164 161 162 163 163 159 150 147 144 144 143 137 135 136 132 103 85 62 31 1
168 214 233 223 258 313 300 287 266 248 235 220 201 189 185 181 177 180 183 181 177 173 171 171 170 169 165 165 163 159 153 152 156 153 152 152 154 153 160 206 234 235 358 336
157 223 267 303 303 303 298 262 245 239 225 210 198 192 188 187 188 188 181 174 172 174 176 176 177 174 169 169 167 164 162 160 160 155 157 160 163 172 188 226 276 292 293 294
187 257 260 265 277 283 277 264 257 251 233 218 210 204 199 196 190 182 176 175 178 184 184 184 185 177 172 172 168 167 169 168 165 164 166 172 182 196 215 243 266 279 288 304
190 223 249 269 280 284 277 268 264 259 242 227 218 203 190 183 181 182 183 185 190 189 186 187 183 172 174 176 174 171 168 170 173 174 181 188 197 212 229 250 265 278 286 294
230 259 270 278 283 285 283 276 267 258 242 229 206 190 187 189 192 189 184 179 181 187 192 188 177 171 177 179 178 173 172 173 179 186 188 196 205 217 234 250 264 272 282 287
235 275 287 286 283 278 276 275 269 260 240 207 194 197 199 200 196 185 177 181 190 198 196 185 179 176 181 184 177 176 176 177 181 188 193 202 208 221 234 247 259 269 278 283
8 337 323 315 309 296 288 286 277 255 220 194 193 195 198 198 189 182 186 199 206 198 173 175 179 183 184 184 180 180 181 184 187 189 195 206 216 226 236 247 258 266 272 276
10 352 344 338 332 331 327 316 294 255 208 191 194 200 202 195 188 185 192 209 206 181 175 179 181 183 183 182 182 183 185 187 191 194 199 208 217 228 237 246 254 261 267 273
358 350 347 346 348 350 352 352 350 339 193 199 204 197 192 193 194 201 212 219 187 182 181 185 187 188 185 182 183 185 188 191 193 195 201 208 216 227 236 245 252 258 263 268
357 348 348 350 347 344 356 8 4 354 318 249 226 214 211 208 199 203 219 211 187 191 189 193 193 190 188 183 185 188 191 193 196 199 204 209 216 225 236 244 250 257 263 268
360 355 351 349 350 2 5 358 351 340 321 290 258 239 226 218 220 222 230 201 199 198 199 199 196 195 190 187 188 192 195 197 199 200 203 207 214 222 232 241 249 256 261 267
336 336 345 353 360 354 341 334 332 335 335 320 306 279 247 233 234 229 218 212 209 205 203 204 201 199 193 189 193 195 197 199 198 196 201 205 212 221 231 237 244 254 260 263
281 311 319 318 316 321 325 325 321 320 317 311 308 299 288 273 256 238 223 217 215 208 201 199 199 200 194 193 197 197 198 201 205 206 206 208 217 223 230 237 247 251 257 262
255 278 293 304 313 317 313 305 300 302 302 299 298 291 284 277 264 246 233 220 216 209 201 200 201 198 193 194 196 197 197 197 198 201 203 209 215 223 230 236 245 251 257 262